GRL241 BGSF-CYDF

Flight info

Callsign GRL241
Flight time 2h 48m
Altitude 38000
Route BAVKO1A BAVKO DCT MS DCT ENNSO/N0441F380 DCT HOIST DCT IRLOK DCT JANJO DCT YAY/N0338F160 V381 YDF
Aircraft A20N/M-SDE2E3FGHIRWXY/LB1

Departure

Time 2026-04-19 06:43
Airport Kangerlussuaq International Airport (BGSF)

Arrival

Time 2026-04-19 09:31
Airport Deer Lake Airport (CYDF)
Time Latitude Longitude Altitude Speed Heading
2026-04-19 06:12 67.01176 -50.69716 167 ft 0 kts 28°
2026-04-19 06:35 67.01177 -50.69715 167 ft 0 kts 28°
2026-04-19 06:35 67.01196 -50.69690 167 ft 5 kts 22°
2026-04-19 06:35 67.01216 -50.69743 167 ft 7 kts 245°
2026-04-19 06:36 67.01188 -50.69877 167 ft 9 kts 243°
2026-04-19 06:36 67.01157 -50.70034 168 ft 10 kts 242°
2026-04-19 06:36 67.01122 -50.70208 168 ft 9 kts 243°
2026-04-19 06:36 67.01142 -50.70316 169 ft 8 kts 343°
2026-04-19 06:37 67.01203 -50.70351 168 ft 9 kts 345°
2026-04-19 06:37 67.01253 -50.70386 168 ft 5 kts 343°
2026-04-19 06:37 67.01268 -50.70396 168 ft 0 kts 343°
2026-04-19 06:37 67.01286 -50.70410 168 ft 7 kts 344°
2026-04-19 06:38 67.01350 -50.70464 168 ft 10 kts 321°
2026-04-19 06:38 67.01339 -50.70645 169 ft 11 kts 239°
2026-04-19 06:38 67.01294 -50.70842 169 ft 14 kts 240°
2026-04-19 06:38 67.01238 -50.71100 170 ft 18 kts 241°
2026-04-19 06:39 67.01176 -50.71400 171 ft 19 kts 242°
2026-04-19 06:39 67.01113 -50.71703 172 ft 19 kts 242°
2026-04-19 06:39 67.01051 -50.72003 173 ft 19 kts 241°
2026-04-19 06:39 67.00987 -50.72304 173 ft 19 kts 241°
2026-04-19 06:40 67.00922 -50.72606 174 ft 19 kts 242°
2026-04-19 06:40 67.00859 -50.72915 175 ft 19 kts 242°
2026-04-19 06:40 67.00794 -50.73219 176 ft 19 kts 238°
2026-04-19 06:40 67.00725 -50.73523 177 ft 19 kts 240°
2026-04-19 06:41 67.00652 -50.73825 178 ft 19 kts 236°
2026-04-19 06:41 67.00585 -50.74088 179 ft 13 kts 242°
2026-04-19 06:41 67.00568 -50.74228 179 ft 3 kts 344°
2026-04-19 06:41 67.00588 -50.74188 179 ft 0 kts 64°
2026-04-19 06:42 67.00592 -50.74170 179 ft 2 kts 64°
2026-04-19 06:42 67.00663 -50.73843 178 ft 52 kts 59°
2026-04-19 06:42 67.00942 -50.72524 174 ft 114 kts 62°
2026-04-19 06:42 67.01403 -50.70299 194 ft 162 kts 61°
2026-04-19 06:43 67.01930 -50.67740 746 ft 164 kts 66°
2026-04-19 06:43 67.02233 -50.64943 1443 ft 166 kts 78°
2026-04-19 06:43 67.02451 -50.62078 2130 ft 167 kts 78°
2026-04-19 06:43 67.02683 -50.59132 2635 ft 175 kts 78°
2026-04-19 06:44 67.02618 -50.56025 3065 ft 188 kts 114°
2026-04-19 06:44 67.01627 -50.53707 3454 ft 205 kts 155°
2026-04-19 06:44 67.00223 -50.52820 3962 ft 219 kts 176°
2026-04-19 06:44 66.98680 -50.53636 4437 ft 237 kts 208°
2026-04-19 06:45 66.97523 -50.56393 5367 ft 232 kts 226°
2026-04-19 06:45 66.96478 -50.59634 5976 ft 243 kts 230°
2026-04-19 06:45 66.95402 -50.63072 6429 ft 261 kts 227°
2026-04-19 06:45 66.94190 -50.66515 7081 ft 270 kts 223°
2026-04-19 06:46 66.92901 -50.69971 7863 ft 274 kts 222°
2026-04-19 06:46 66.91585 -50.73383 8936 ft 273 kts 222°
2026-04-19 06:46 66.90246 -50.76857 9690 ft 276 kts 223°
2026-04-19 06:46 66.88892 -50.80374 10349 ft 285 kts 223°
2026-04-19 06:47 66.87484 -50.84017 10788 ft 304 kts 223°
2026-04-19 06:47 66.85963 -50.87942 11158 ft 319 kts 223°
2026-04-19 06:47 66.84390 -50.91986 11844 ft 326 kts 223°
2026-04-19 06:47 66.82811 -50.95994 12575 ft 328 kts 223°
2026-04-19 06:48 66.81206 -51.00066 13376 ft 331 kts 223°
2026-04-19 06:48 66.79592 -51.04160 14001 ft 334 kts 223°
2026-04-19 06:48 66.77952 -51.08326 14764 ft 337 kts 223°
2026-04-19 06:48 66.76331 -51.12444 15407 ft 340 kts 223°
2026-04-19 06:49 66.74658 -51.16686 16075 ft 342 kts 223°
2026-04-19 06:49 66.72985 -51.20927 16760 ft 344 kts 223°
2026-04-19 06:49 66.71336 -51.25093 17413 ft 346 kts 223°
2026-04-19 06:49 66.69635 -51.29381 18025 ft 349 kts 223°
2026-04-19 06:50 66.67924 -51.33682 18635 ft 351 kts 223°
2026-04-19 06:50 66.66208 -51.37989 19205 ft 354 kts 223°
2026-04-19 06:50 66.64466 -51.42331 19778 ft 356 kts 222°
2026-04-19 06:50 66.62671 -51.46408 20281 ft 358 kts 220°
2026-04-19 06:51 66.60812 -51.50514 20814 ft 360 kts 221°
2026-04-19 06:51 66.58916 -51.54702 21332 ft 363 kts 221°
2026-04-19 06:51 66.57053 -51.58810 21788 ft 366 kts 222°
2026-04-19 06:51 66.55134 -51.63037 22287 ft 368 kts 222°
2026-04-19 06:52 66.53214 -51.67249 22744 ft 370 kts 222°
2026-04-19 06:52 66.51288 -51.71469 23216 ft 373 kts 222°
2026-04-19 06:52 66.49329 -51.75753 23643 ft 376 kts 223°
2026-04-19 06:52 66.47385 -51.79890 24068 ft 379 kts 220°
2026-04-19 06:53 66.45234 -51.83662 24481 ft 383 kts 214°
2026-04-19 06:53 66.42905 -51.86850 24867 ft 388 kts 208°
2026-04-19 06:53 66.40478 -51.89571 25201 ft 392 kts 207°
2026-04-19 06:53 66.37972 -51.92289 25531 ft 396 kts 207°
2026-04-19 06:54 66.35452 -51.95005 25849 ft 399 kts 207°
2026-04-19 06:54 66.32925 -51.97724 26182 ft 402 kts 208°
2026-04-19 06:54 66.30363 -52.00480 26491 ft 405 kts 208°
2026-04-19 06:54 66.27810 -52.03220 26777 ft 409 kts 208°
2026-04-19 06:55 66.25201 -52.06016 27093 ft 412 kts 209°
2026-04-19 06:55 66.22600 -52.08801 27398 ft 415 kts 209°
2026-04-19 06:55 66.19948 -52.11636 27739 ft 416 kts 210°
2026-04-19 06:55 66.17310 -52.14453 28073 ft 418 kts 210°
2026-04-19 06:56 66.14648 -52.17281 28358 ft 421 kts 210°
2026-04-19 06:56 66.11936 -52.20160 28642 ft 424 kts 210°
2026-04-19 06:56 66.09242 -52.23018 28914 ft 427 kts 210°
2026-04-19 06:56 66.06486 -52.25931 29198 ft 430 kts 211°
2026-04-19 06:57 66.03735 -52.28833 29481 ft 432 kts 211°
2026-04-19 06:57 66.01012 -52.31693 29764 ft 434 kts 211°
2026-04-19 06:57 65.98238 -52.34604 30016 ft 437 kts 211°
2026-04-19 06:57 65.95486 -52.37487 30300 ft 438 kts 212°
2026-04-19 06:58 65.92648 -52.40449 30598 ft 440 kts 212°
2026-04-19 06:58 65.89875 -52.43334 30951 ft 439 kts 212°
2026-04-19 06:58 65.87704 -52.45590 31224 ft 438 kts 212°
2026-04-19 06:58 65.84559 -52.48860 31575 ft 436 kts 212°
2026-04-19 06:59 65.81789 -52.51736 31854 ft 435 kts 211°
2026-04-19 06:59 65.79050 -52.54561 32091 ft 435 kts 211°
2026-04-19 06:59 65.76283 -52.57410 32371 ft 434 kts 211°
2026-04-19 06:59 65.73574 -52.60198 32608 ft 434 kts 211°
2026-04-19 07:00 65.70806 -52.63036 32828 ft 433 kts 211°
2026-04-19 07:00 65.68021 -52.65885 33065 ft 433 kts 210°
2026-04-19 07:00 65.65258 -52.68703 33287 ft 433 kts 209°
2026-04-19 07:00 65.62497 -52.71510 33543 ft 432 kts 209°
2026-04-19 07:01 65.59735 -52.74311 33800 ft 430 kts 209°
2026-04-19 07:01 65.57011 -52.77073 34000 ft 430 kts 209°
2026-04-19 07:01 65.54275 -52.79837 34231 ft 429 kts 208°
2026-04-19 07:01 65.51508 -52.82620 34499 ft 428 kts 209°
2026-04-19 07:02 65.48764 -52.85376 34725 ft 428 kts 209°
2026-04-19 07:02 65.46045 -52.88105 34983 ft 426 kts 209°
2026-04-19 07:02 65.43338 -52.90733 35185 ft 427 kts 207°
2026-04-19 07:02 65.40633 -52.92981 35342 ft 430 kts 203°
2026-04-19 07:03 65.37719 -52.94961 35545 ft 433 kts 200°
2026-04-19 07:03 65.34804 -52.96575 35754 ft 433 kts 199°
2026-04-19 07:03 65.31924 -52.98180 35940 ft 432 kts 199°
2026-04-19 07:03 65.28999 -52.99836 36129 ft 431 kts 199°
2026-04-19 07:04 65.26105 -53.01470 36306 ft 431 kts 199°
2026-04-19 07:04 65.23183 -53.03111 36472 ft 431 kts 199°
2026-04-19 07:04 65.20255 -53.04752 36618 ft 431 kts 199°
2026-04-19 07:04 65.17394 -53.06346 36761 ft 431 kts 199°
2026-04-19 07:05 65.14487 -53.07966 36919 ft 431 kts 199°
2026-04-19 07:05 65.11584 -53.09576 37080 ft 430 kts 199°
2026-04-19 07:05 65.08720 -53.11164 37240 ft 429 kts 199°
2026-04-19 07:05 65.05806 -53.12770 37357 ft 430 kts 199°
2026-04-19 07:06 65.02927 -53.14359 37477 ft 430 kts 199°
2026-04-19 07:06 65.00013 -53.15960 37571 ft 430 kts 199°
2026-04-19 07:06 64.97143 -53.17536 37684 ft 430 kts 199°
2026-04-19 07:06 64.94325 -53.19078 37800 ft 430 kts 199°
2026-04-19 07:07 64.88460 -53.22275 37822 ft 431 kts 199°
2026-04-19 07:07 64.82661 -53.25423 37823 ft 431 kts 199°
2026-04-19 07:08 64.76826 -53.28579 37829 ft 432 kts 199°
2026-04-19 07:08 64.71006 -53.31710 37824 ft 433 kts 199°
2026-04-19 07:09 64.65184 -53.34833 37828 ft 432 kts 199°
2026-04-19 07:09 64.59440 -53.37896 37818 ft 433 kts 199°
2026-04-19 07:10 64.53588 -53.41004 37816 ft 433 kts 199°
2026-04-19 07:10 64.47726 -53.44106 37823 ft 432 kts 199°
2026-04-19 07:11 64.41874 -53.47185 37815 ft 432 kts 199°
2026-04-19 07:11 64.36087 -53.50222 37814 ft 433 kts 199°
2026-04-19 07:12 64.30196 -53.53297 37819 ft 433 kts 200°
2026-04-19 07:12 64.24364 -53.56330 37821 ft 433 kts 200°
2026-04-19 07:13 64.18497 -53.59367 37832 ft 433 kts 200°
2026-04-19 07:13 64.12637 -53.62385 37829 ft 432 kts 200°
2026-04-19 07:14 64.06813 -53.65374 37829 ft 433 kts 199°
2026-04-19 07:14 64.00930 -53.68381 37819 ft 435 kts 199°
2026-04-19 07:15 63.95039 -53.71379 37826 ft 435 kts 199°
2026-04-19 07:16 63.86200 -53.75848 37820 ft 435 kts 199°
2026-04-19 07:16 63.80335 -53.78799 37833 ft 434 kts 199°
2026-04-19 07:17 63.74507 -53.81719 37837 ft 434 kts 199°
2026-04-19 07:17 63.68645 -53.84644 37840 ft 436 kts 200°
2026-04-19 07:18 63.62726 -53.87586 37835 ft 436 kts 200°
2026-04-19 07:18 63.56828 -53.90500 37829 ft 436 kts 200°
2026-04-19 07:19 63.50932 -53.93411 37714 ft 436 kts 200°
2026-04-19 07:19 63.45015 -53.96316 37813 ft 437 kts 200°
2026-04-19 07:20 63.39158 -53.99175 37829 ft 435 kts 200°
2026-04-19 07:20 63.33268 -54.02039 37829 ft 436 kts 200°
2026-04-19 07:21 63.27330 -54.04914 37817 ft 436 kts 200°
2026-04-19 07:21 63.21437 -54.07757 37820 ft 436 kts 200°
2026-04-19 07:22 63.09757 -54.13359 37830 ft 437 kts 200°
2026-04-19 07:23 63.03842 -54.16172 37827 ft 436 kts 200°
2026-04-19 07:23 62.97914 -54.18986 37832 ft 435 kts 201°
2026-04-19 07:24 62.92037 -54.21768 37824 ft 436 kts 201°
2026-04-19 07:24 62.86136 -54.24541 37834 ft 435 kts 201°
2026-04-19 07:25 62.80209 -54.27321 37831 ft 436 kts 201°
2026-04-19 07:25 62.74311 -54.30077 37828 ft 435 kts 201°
2026-04-19 07:26 62.68509 -54.32767 37843 ft 436 kts 201°
2026-04-19 07:26 62.62595 -54.35512 37840 ft 435 kts 201°
2026-04-19 07:27 62.56772 -54.38187 37829 ft 433 kts 201°
2026-04-19 07:27 62.50914 -54.40882 37837 ft 434 kts 201°
2026-04-19 07:28 62.44997 -54.43592 37841 ft 435 kts 201°
2026-04-19 07:28 62.39112 -54.46272 37836 ft 435 kts 201°
2026-04-19 07:29 62.33221 -54.48940 37841 ft 433 kts 201°
2026-04-19 07:29 62.27364 -54.51592 37836 ft 434 kts 201°
2026-04-19 07:30 62.21464 -54.54250 37843 ft 436 kts 202°
2026-04-19 07:30 62.15551 -54.56900 37842 ft 435 kts 201°
2026-04-19 07:31 62.09644 -54.59535 37842 ft 434 kts 202°
2026-04-19 07:31 62.03794 -54.62135 37843 ft 433 kts 202°
2026-04-19 07:32 61.97912 -54.64741 37838 ft 434 kts 202°
2026-04-19 07:32 61.92014 -54.67346 37856 ft 435 kts 201°
2026-04-19 07:33 61.86134 -54.69933 37834 ft 434 kts 201°
2026-04-19 07:33 61.80232 -54.72514 37850 ft 433 kts 201°
2026-04-19 07:34 61.74400 -54.75059 37851 ft 434 kts 201°
2026-04-19 07:34 61.68493 -54.77621 37854 ft 433 kts 201°
2026-04-19 07:35 61.62609 -54.80177 37852 ft 434 kts 201°
2026-04-19 07:35 61.56679 -54.82732 37861 ft 434 kts 201°
2026-04-19 07:36 61.50832 -54.85235 37860 ft 432 kts 201°
2026-04-19 07:36 61.44932 -54.87767 37863 ft 435 kts 201°
2026-04-19 07:37 61.39290 -54.90168 37848 ft 435 kts 201°
2026-04-19 07:37 61.33351 -54.92689 37858 ft 436 kts 202°
2026-04-19 07:38 61.27468 -54.95175 37853 ft 435 kts 202°
2026-04-19 07:38 61.21588 -54.97650 37855 ft 434 kts 202°
2026-04-19 07:39 61.15645 -55.00147 37860 ft 436 kts 202°
2026-04-19 07:39 61.09718 -55.02626 37855 ft 434 kts 202°
2026-04-19 07:40 61.03878 -55.05056 37855 ft 435 kts 202°
2026-04-19 07:40 60.97947 -55.07513 37844 ft 434 kts 202°
2026-04-19 07:41 60.92071 -55.09946 37831 ft 435 kts 202°
2026-04-19 07:41 60.86151 -55.12382 37834 ft 435 kts 202°
2026-04-19 07:42 60.80220 -55.14817 37832 ft 435 kts 202°
2026-04-19 07:42 60.74342 -55.17216 37840 ft 433 kts 202°
2026-04-19 07:43 60.68456 -55.19607 37842 ft 432 kts 203°
2026-04-19 07:43 60.62578 -55.21999 37837 ft 434 kts 202°
2026-04-19 07:44 60.56671 -55.24384 37841 ft 433 kts 203°
2026-04-19 07:44 60.50760 -55.26767 37845 ft 435 kts 203°
2026-04-19 07:45 60.44887 -55.29122 37841 ft 433 kts 203°
2026-04-19 07:45 60.38981 -55.31479 37844 ft 432 kts 203°
2026-04-19 07:46 60.33146 -55.33801 37849 ft 432 kts 203°
2026-04-19 07:46 60.27246 -55.36146 37852 ft 433 kts 203°
2026-04-19 07:47 60.21443 -55.38439 37849 ft 431 kts 203°
2026-04-19 07:47 60.15587 -55.40746 37858 ft 432 kts 203°
2026-04-19 07:48 60.09707 -55.43061 37851 ft 433 kts 204°
2026-04-19 07:48 60.03811 -55.45365 37853 ft 430 kts 204°
2026-04-19 07:49 59.97978 -55.47629 37852 ft 431 kts 204°
2026-04-19 07:49 59.92079 -55.49924 37855 ft 431 kts 204°
2026-04-19 07:50 59.86281 -55.52159 37853 ft 426 kts 204°
2026-04-19 07:50 59.80455 -55.54413 37846 ft 428 kts 204°
2026-04-19 07:51 59.74644 -55.56644 37849 ft 425 kts 204°
2026-04-19 07:51 59.68812 -55.58879 37849 ft 428 kts 204°
2026-04-19 07:52 59.62990 -55.61096 37842 ft 429 kts 204°
2026-04-19 07:52 59.57158 -55.63312 37846 ft 429 kts 205°
2026-04-19 07:53 59.51356 -55.65511 37840 ft 429 kts 204°
2026-04-19 07:53 59.45499 -55.67720 37839 ft 429 kts 204°
2026-04-19 07:54 59.39682 -55.69908 37842 ft 427 kts 204°
2026-04-19 07:54 59.33857 -55.72092 37844 ft 429 kts 204°
2026-04-19 07:55 59.28082 -55.74247 37835 ft 428 kts 204°
2026-04-19 07:55 59.22258 -55.76413 37833 ft 428 kts 204°
2026-04-19 07:56 59.16400 -55.78584 37842 ft 428 kts 204°
2026-04-19 07:56 59.10606 -55.80721 37839 ft 426 kts 204°
2026-04-19 07:57 59.04897 -55.82827 37834 ft 425 kts 204°
2026-04-19 07:57 58.99083 -55.84961 37827 ft 424 kts 204°
2026-04-19 07:58 58.93300 -55.87079 37835 ft 424 kts 204°
2026-04-19 07:58 58.87548 -55.89172 37825 ft 423 kts 205°
2026-04-19 07:59 58.81771 -55.91274 37831 ft 423 kts 204°
2026-04-19 07:59 58.76033 -55.93347 37832 ft 422 kts 204°
2026-04-19 08:00 58.70274 -55.95430 37836 ft 420 kts 204°
2026-04-19 08:00 58.64545 -55.97487 37834 ft 421 kts 205°
2026-04-19 08:01 58.58883 -55.99517 37834 ft 420 kts 205°
2026-04-19 08:01 58.53109 -56.01584 37829 ft 422 kts 204°
2026-04-19 08:02 58.47379 -56.03621 37834 ft 421 kts 204°
2026-04-19 08:02 58.41622 -56.05667 37839 ft 422 kts 205°
2026-04-19 08:03 58.35921 -56.07680 37838 ft 419 kts 205°
2026-04-19 08:03 58.30185 -56.09699 37825 ft 418 kts 205°
2026-04-19 08:04 58.24488 -56.11705 37823 ft 421 kts 205°
2026-04-19 08:04 58.18753 -56.13717 37825 ft 419 kts 204°
2026-04-19 08:05 58.13038 -56.15710 37823 ft 421 kts 205°
2026-04-19 08:05 58.07298 -56.17703 37821 ft 419 kts 205°
2026-04-19 08:06 58.01599 -56.19682 37821 ft 420 kts 205°
2026-04-19 08:06 57.95829 -56.21678 37818 ft 418 kts 204°
2026-04-19 08:07 57.90186 -56.23616 37818 ft 417 kts 205°
2026-04-19 08:07 57.84479 -56.25582 37814 ft 417 kts 204°
2026-04-19 08:08 57.78761 -56.27537 37816 ft 418 kts 205°
2026-04-19 08:08 57.73063 -56.29487 37816 ft 417 kts 205°
2026-04-19 08:09 57.67372 -56.31421 37802 ft 419 kts 205°
2026-04-19 08:09 57.61654 -56.33355 37803 ft 418 kts 204°
2026-04-19 08:10 57.55994 -56.35269 37803 ft 416 kts 205°
2026-04-19 08:10 57.50293 -56.37192 37799 ft 416 kts 204°
2026-04-19 08:11 57.44637 -56.39086 37802 ft 415 kts 205°
2026-04-19 08:11 57.38935 -56.41002 37800 ft 416 kts 204°
2026-04-19 08:12 57.33331 -56.42873 37801 ft 417 kts 205°
2026-04-19 08:12 57.27622 -56.44769 37806 ft 417 kts 204°
2026-04-19 08:13 57.21939 -56.46654 37804 ft 417 kts 205°
2026-04-19 08:13 57.16244 -56.48541 37798 ft 418 kts 204°
2026-04-19 08:14 57.10601 -56.50395 37803 ft 416 kts 204°
2026-04-19 08:14 57.02036 -56.53211 37804 ft 416 kts 204°
2026-04-19 08:15 56.96382 -56.55059 37802 ft 415 kts 204°
2026-04-19 08:15 56.90744 -56.56895 37804 ft 414 kts 204°
2026-04-19 08:16 56.85091 -56.58735 37807 ft 417 kts 204°
2026-04-19 08:16 56.82235 -56.59662 37990 ft 417 kts 204°
2026-04-19 08:16 56.79402 -56.60580 37858 ft 417 kts 204°
2026-04-19 08:17 56.73684 -56.62423 37811 ft 417 kts 204°
2026-04-19 08:17 56.68006 -56.64254 37805 ft 417 kts 204°
2026-04-19 08:18 56.62360 -56.66067 37803 ft 417 kts 203°
2026-04-19 08:18 56.56697 -56.67876 37802 ft 418 kts 203°
2026-04-19 08:19 56.50983 -56.69706 37794 ft 419 kts 203°
2026-04-19 08:19 56.45341 -56.71499 37792 ft 419 kts 202°
2026-04-19 08:20 56.39656 -56.73301 37794 ft 418 kts 202°
2026-04-19 08:20 56.33942 -56.75107 37800 ft 420 kts 203°
2026-04-19 08:21 56.28209 -56.76914 37795 ft 419 kts 203°
2026-04-19 08:21 56.22600 -56.78677 37796 ft 421 kts 203°
2026-04-19 08:22 56.16918 -56.80457 37796 ft 419 kts 202°
2026-04-19 08:22 56.11179 -56.82252 37802 ft 421 kts 202°
2026-04-19 08:23 56.05417 -56.84045 37807 ft 421 kts 202°
2026-04-19 08:23 55.99735 -56.85809 37805 ft 420 kts 202°
2026-04-19 08:24 55.93965 -56.87597 37814 ft 422 kts 202°
2026-04-19 08:24 55.88213 -56.89369 37818 ft 421 kts 202°
2026-04-19 08:25 55.82458 -56.91139 37816 ft 423 kts 202°
2026-04-19 08:25 55.76671 -56.92916 37824 ft 422 kts 202°
2026-04-19 08:26 55.70848 -56.94696 37823 ft 424 kts 202°
2026-04-19 08:26 55.65087 -56.96449 37823 ft 423 kts 202°
2026-04-19 08:27 55.59362 -56.98186 37823 ft 423 kts 202°
2026-04-19 08:27 55.53482 -56.99678 37835 ft 430 kts 197°
2026-04-19 08:28 55.47442 -57.00040 37834 ft 440 kts 191°
2026-04-19 08:28 55.41360 -56.99989 37839 ft 439 kts 192°
2026-04-19 08:29 55.35327 -56.99999 37835 ft 439 kts 191°
2026-04-19 08:29 55.29216 -56.99999 37835 ft 439 kts 191°
2026-04-19 08:30 55.23134 -57.00000 37838 ft 437 kts 191°
2026-04-19 08:30 55.17062 -57.00003 37832 ft 440 kts 191°
2026-04-19 08:31 55.10923 -57.00000 37827 ft 439 kts 191°
2026-04-19 08:31 55.04872 -57.00014 37829 ft 438 kts 191°
2026-04-19 08:32 54.98751 -56.99990 37833 ft 440 kts 191°
2026-04-19 08:32 54.92651 -57.00002 37838 ft 442 kts 191°
2026-04-19 08:33 54.86496 -57.00002 37835 ft 441 kts 191°
2026-04-19 08:33 54.80413 -57.00004 37837 ft 441 kts 191°
2026-04-19 08:34 54.74308 -57.00000 37852 ft 440 kts 191°
2026-04-19 08:34 54.68194 -57.00000 37850 ft 442 kts 191°
2026-04-19 08:35 54.62094 -57.00007 37866 ft 441 kts 191°
2026-04-19 08:35 54.55944 -57.00011 37877 ft 443 kts 190°
2026-04-19 08:36 54.49786 -57.00021 37870 ft 443 kts 190°
2026-04-19 08:36 54.43644 -57.00028 37879 ft 442 kts 190°
2026-04-19 08:37 54.37534 -57.00032 37881 ft 442 kts 190°
2026-04-19 08:37 54.31421 -57.00032 37872 ft 444 kts 190°
2026-04-19 08:38 54.25244 -57.00028 37880 ft 443 kts 190°
2026-04-19 08:38 54.19076 -57.00021 37881 ft 444 kts 190°
2026-04-19 08:39 54.12952 -57.00013 37888 ft 444 kts 190°
2026-04-19 08:39 54.06826 -56.99948 37887 ft 446 kts 187°
2026-04-19 08:40 54.00590 -56.98947 37889 ft 457 kts 180°
2026-04-19 08:40 53.94342 -56.96767 37899 ft 460 kts 176°
2026-04-19 08:41 53.88133 -56.94460 37905 ft 460 kts 176°
2026-04-19 08:41 53.81898 -56.92170 37917 ft 459 kts 176°
2026-04-19 08:42 53.75677 -56.89894 37930 ft 459 kts 176°
2026-04-19 08:42 53.69457 -56.87629 37930 ft 460 kts 176°
2026-04-19 08:43 53.63195 -56.85360 37928 ft 460 kts 176°
2026-04-19 08:43 53.56966 -56.83108 37922 ft 462 kts 176°
2026-04-19 08:44 53.50692 -56.80842 37920 ft 461 kts 176°
2026-04-19 08:44 53.44436 -56.78595 37931 ft 461 kts 176°
2026-04-19 08:45 53.38184 -56.76352 37925 ft 461 kts 176°
2026-04-19 08:45 53.31948 -56.74124 37943 ft 460 kts 175°
2026-04-19 08:46 53.25724 -56.71906 37944 ft 461 kts 175°
2026-04-19 08:46 53.19459 -56.69682 37946 ft 460 kts 175°
2026-04-19 08:47 53.13245 -56.67479 37953 ft 459 kts 175°
2026-04-19 08:47 53.07024 -56.65283 37955 ft 460 kts 175°
2026-04-19 08:48 53.00802 -56.63094 37961 ft 460 kts 175°
2026-04-19 08:48 52.94555 -56.60901 37968 ft 460 kts 175°
2026-04-19 08:49 52.88345 -56.58727 37967 ft 460 kts 175°
2026-04-19 08:49 52.82070 -56.56537 37981 ft 460 kts 174°
2026-04-19 08:50 52.75804 -56.54354 37989 ft 460 kts 174°
2026-04-19 08:50 52.69617 -56.52209 37990 ft 460 kts 174°
2026-04-19 08:51 52.63393 -56.50055 37991 ft 460 kts 174°
2026-04-19 08:51 52.57125 -56.47895 37993 ft 461 kts 174°
2026-04-19 08:52 52.50854 -56.45735 37998 ft 460 kts 174°
2026-04-19 08:52 52.44598 -56.43590 38007 ft 460 kts 174°
2026-04-19 08:53 52.38375 -56.41461 38011 ft 460 kts 174°
2026-04-19 08:53 52.32202 -56.39359 38013 ft 460 kts 174°
2026-04-19 08:54 52.25935 -56.37227 38018 ft 460 kts 174°
2026-04-19 08:54 52.19680 -56.35107 38024 ft 461 kts 174°
2026-04-19 08:55 52.13396 -56.32978 38025 ft 459 kts 174°
2026-04-19 08:55 52.07207 -56.30894 38033 ft 459 kts 174°
2026-04-19 08:56 52.00994 -56.28807 38036 ft 459 kts 174°
2026-04-19 08:56 51.94727 -56.26703 38030 ft 459 kts 174°
2026-04-19 08:57 51.88512 -56.24628 38051 ft 459 kts 174°
2026-04-19 08:57 51.82274 -56.22549 38078 ft 460 kts 174°
2026-04-19 08:58 51.76006 -56.20464 38099 ft 459 kts 174°
2026-04-19 08:58 51.69801 -56.18407 38106 ft 460 kts 174°
2026-04-19 08:59 51.63554 -56.16341 38113 ft 459 kts 174°
2026-04-19 08:59 51.57346 -56.14292 38123 ft 458 kts 173°
2026-04-19 09:00 51.51109 -56.12237 38130 ft 459 kts 174°
2026-04-19 09:00 51.44813 -56.10442 37839 ft 456 kts 180°
2026-04-19 09:01 51.41707 -56.10164 37300 ft 448 kts 186°
2026-04-19 09:01 51.38592 -56.10361 36753 ft 440 kts 192°
2026-04-19 09:01 51.35616 -56.11003 36222 ft 431 kts 197°
2026-04-19 09:01 51.32779 -56.12038 35697 ft 426 kts 202°
2026-04-19 09:02 51.29082 -56.13952 34993 ft 425 kts 206°
2026-04-19 09:02 51.26321 -56.15486 34464 ft 426 kts 206°
2026-04-19 09:02 51.23525 -56.17038 33947 ft 427 kts 206°
2026-04-19 09:02 51.20720 -56.18581 33437 ft 427 kts 206°
2026-04-19 09:03 51.17896 -56.20126 32924 ft 428 kts 206°
2026-04-19 09:03 51.15086 -56.21659 32297 ft 429 kts 205°
2026-04-19 09:03 51.12304 -56.23169 31716 ft 428 kts 205°
2026-04-19 09:03 51.09460 -56.24710 31122 ft 428 kts 205°
2026-04-19 09:04 51.06663 -56.26221 30541 ft 428 kts 205°
2026-04-19 09:04 51.03850 -56.27741 29955 ft 430 kts 205°
2026-04-19 09:04 51.00999 -56.29279 29375 ft 430 kts 205°
2026-04-19 09:04 50.98237 -56.30767 28810 ft 429 kts 205°
2026-04-19 09:05 50.95433 -56.32275 28235 ft 426 kts 205°
2026-04-19 09:05 50.92641 -56.33773 27661 ft 422 kts 204°
2026-04-19 09:05 50.89856 -56.35263 27129 ft 418 kts 205°
2026-04-19 09:05 50.87127 -56.36722 26610 ft 414 kts 204°
2026-04-19 09:06 50.84398 -56.38181 26089 ft 411 kts 204°
2026-04-19 09:06 50.82497 -56.39199 25722 ft 409 kts 204°
2026-04-19 09:06 50.79799 -56.40639 25201 ft 407 kts 204°
2026-04-19 09:06 50.77131 -56.42062 24683 ft 404 kts 204°
2026-04-19 09:07 50.74503 -56.43460 24206 ft 401 kts 204°
2026-04-19 09:07 50.71875 -56.44861 23784 ft 397 kts 204°
2026-04-19 09:07 50.68843 -56.46471 23348 ft 397 kts 204°
2026-04-19 09:07 50.66272 -56.47836 22953 ft 395 kts 204°
2026-04-19 09:08 50.63694 -56.49199 22564 ft 391 kts 204°
2026-04-19 09:08 50.61114 -56.50560 22168 ft 387 kts 204°
2026-04-19 09:08 50.58604 -56.51884 21769 ft 383 kts 204°
2026-04-19 09:08 50.56072 -56.53220 21365 ft 379 kts 204°
2026-04-19 09:09 50.53601 -56.54522 20959 ft 375 kts 204°
2026-04-19 09:09 50.51148 -56.55814 20558 ft 372 kts 204°
2026-04-19 09:09 50.48730 -56.57088 20154 ft 368 kts 205°
2026-04-19 09:09 50.46356 -56.58335 19758 ft 365 kts 205°
2026-04-19 09:10 50.43938 -56.59607 19341 ft 361 kts 205°
2026-04-19 09:10 50.41604 -56.60831 18929 ft 358 kts 205°
2026-04-19 09:10 50.39238 -56.62072 18516 ft 355 kts 205°
2026-04-19 09:10 50.36890 -56.63302 18082 ft 352 kts 205°
2026-04-19 09:11 50.34578 -56.64514 17650 ft 349 kts 205°
2026-04-19 09:11 50.32298 -56.65708 17218 ft 347 kts 204°
2026-04-19 09:11 50.30005 -56.66907 16784 ft 345 kts 204°
2026-04-19 09:11 50.27776 -56.68070 16367 ft 342 kts 204°
2026-04-19 09:12 50.25538 -56.69236 16022 ft 340 kts 203°
2026-04-19 09:12 50.23312 -56.70396 15686 ft 339 kts 203°
2026-04-19 09:12 50.21068 -56.71563 15347 ft 337 kts 203°
2026-04-19 09:12 50.18885 -56.72696 15012 ft 335 kts 202°
2026-04-19 09:13 50.16660 -56.73851 14676 ft 333 kts 202°
2026-04-19 09:13 50.14465 -56.74987 14339 ft 331 kts 202°
2026-04-19 09:13 50.12307 -56.76103 14013 ft 329 kts 202°
2026-04-19 09:13 50.10150 -56.77219 13679 ft 327 kts 202°
2026-04-19 09:14 50.08001 -56.78330 13337 ft 325 kts 202°
2026-04-19 09:14 50.05860 -56.79436 12994 ft 322 kts 202°
2026-04-19 09:14 50.03738 -56.80530 12676 ft 320 kts 202°
2026-04-19 09:14 50.01656 -56.81604 12335 ft 317 kts 202°
2026-04-19 09:15 49.99579 -56.82671 12100 ft 308 kts 202°
2026-04-19 09:15 49.97587 -56.83693 11785 ft 302 kts 202°
2026-04-19 09:15 49.93677 -56.85702 11155 ft 291 kts 202°
2026-04-19 09:16 49.91783 -56.86737 10929 ft 280 kts 204°
2026-04-19 09:16 49.89991 -56.87766 10911 ft 271 kts 204°
2026-04-19 09:16 49.88237 -56.88781 10590 ft 271 kts 204°
2026-04-19 09:16 49.86486 -56.89791 10220 ft 268 kts 204°
2026-04-19 09:17 49.84753 -56.90784 9875 ft 266 kts 204°
2026-04-19 09:17 49.83023 -56.91772 9517 ft 263 kts 204°
2026-04-19 09:17 49.81300 -56.92753 9182 ft 261 kts 204°
2026-04-19 09:17 49.79622 -56.93708 8817 ft 259 kts 204°
2026-04-19 09:18 49.77949 -56.94658 8466 ft 257 kts 204°
2026-04-19 09:18 49.76289 -56.95601 8129 ft 254 kts 204°
2026-04-19 09:18 49.74624 -56.96545 7783 ft 252 kts 204°
2026-04-19 09:18 49.72994 -56.97467 7471 ft 248 kts 204°
2026-04-19 09:19 49.71415 -56.98358 7155 ft 243 kts 204°
2026-04-19 09:19 49.69830 -56.99253 6865 ft 239 kts 204°
2026-04-19 09:19 49.68276 -57.00131 6584 ft 235 kts 204°
2026-04-19 09:19 49.66774 -57.00980 6308 ft 231 kts 204°
2026-04-19 09:20 49.65276 -57.01827 6056 ft 226 kts 204°
2026-04-19 09:20 49.63804 -57.02657 5770 ft 222 kts 204°
2026-04-19 09:20 49.62381 -57.03459 5505 ft 218 kts 204°
2026-04-19 09:20 49.60966 -57.04257 5237 ft 214 kts 204°
2026-04-19 09:21 49.59595 -57.05026 5023 ft 208 kts 204°
2026-04-19 09:21 49.58260 -57.05776 4833 ft 201 kts 204°
2026-04-19 09:21 49.56957 -57.06508 4655 ft 196 kts 204°
2026-04-19 09:21 49.55679 -57.07227 4469 ft 195 kts 204°
2026-04-19 09:22 49.54412 -57.07939 4289 ft 195 kts 204°
2026-04-19 09:22 49.53138 -57.08656 4097 ft 195 kts 204°
2026-04-19 09:22 49.51858 -57.09375 3904 ft 192 kts 204°
2026-04-19 09:22 49.50624 -57.10065 3713 ft 186 kts 204°
2026-04-19 09:23 49.49440 -57.10726 3524 ft 180 kts 204°
2026-04-19 09:23 49.48256 -57.11389 3334 ft 179 kts 204°
2026-04-19 09:23 49.47097 -57.12042 3184 ft 178 kts 204°
2026-04-19 09:23 49.45931 -57.12696 3084 ft 177 kts 203°
2026-04-19 09:24 49.44783 -57.13340 2972 ft 177 kts 203°
2026-04-19 09:24 49.43624 -57.13988 2867 ft 177 kts 202°
2026-04-19 09:24 49.42463 -57.14637 2762 ft 178 kts 202°
2026-04-19 09:24 49.41296 -57.15289 2653 ft 174 kts 202°
2026-04-19 09:25 49.40197 -57.15900 2612 ft 160 kts 202°
2026-04-19 09:25 49.39155 -57.16479 2531 ft 158 kts 202°
2026-04-19 09:25 49.38126 -57.17052 2433 ft 157 kts 202°
2026-04-19 09:25 49.37101 -57.17623 2321 ft 156 kts 202°
2026-04-19 09:26 49.36085 -57.18190 2212 ft 156 kts 201°
2026-04-19 09:26 49.35056 -57.18763 2110 ft 156 kts 201°
2026-04-19 09:26 49.34056 -57.19422 2002 ft 157 kts 207°
2026-04-19 09:26 49.33143 -57.20308 1968 ft 156 kts 215°
2026-04-19 09:27 49.32300 -57.21376 1961 ft 157 kts 220°
2026-04-19 09:27 49.31514 -57.22544 1959 ft 157 kts 223°
2026-04-19 09:27 49.30753 -57.23743 1961 ft 156 kts 223°
2026-04-19 09:27 49.30014 -57.24925 1941 ft 144 kts 223°
2026-04-19 09:28 49.29352 -57.25984 1932 ft 137 kts 223°
2026-04-19 09:28 49.28691 -57.27037 1965 ft 135 kts 222°
2026-04-19 09:28 49.28043 -57.28069 1834 ft 134 kts 223°
2026-04-19 09:28 49.27394 -57.29102 1645 ft 133 kts 223°
2026-04-19 09:29 49.26762 -57.30110 1471 ft 132 kts 223°
2026-04-19 09:29 49.26126 -57.31123 1295 ft 132 kts 223°
2026-04-19 09:29 49.25487 -57.32143 1126 ft 131 kts 224°
2026-04-19 09:29 49.24858 -57.33153 959 ft 131 kts 224°
2026-04-19 09:30 49.24227 -57.34147 778 ft 131 kts 224°
2026-04-19 09:30 49.23604 -57.35141 615 ft 130 kts 225°
2026-04-19 09:30 49.22975 -57.36145 487 ft 130 kts 223°
2026-04-19 09:30 49.22358 -57.37126 317 ft 130 kts 223°
2026-04-19 09:31 49.21747 -57.38112 118 ft 128 kts 226°
2026-04-19 09:31 49.21160 -57.39050 56 ft 107 kts 226°
2026-04-19 09:31 49.20764 -57.39675 56 ft 58 kts 225°
2026-04-19 09:31 49.20541 -57.40034 55 ft 39 kts 225°
2026-04-19 09:32 49.20369 -57.40307 55 ft 34 kts 226°
2026-04-19 09:32 49.20237 -57.40526 55 ft 15 kts 228°
2026-04-19 09:32 49.20200 -57.40634 54 ft 7 kts 205°
2026-04-19 09:32 49.20204 -57.40581 54 ft 8 kts 58°
2026-04-19 09:33 49.20252 -57.40500 55 ft 13 kts 46°
2026-04-19 09:33 49.20320 -57.40390 55 ft 14 kts 47°
2026-04-19 09:33 49.20393 -57.40277 55 ft 16 kts 45°
2026-04-19 09:33 49.20478 -57.40140 55 ft 18 kts 47°
2026-04-19 09:34 49.20573 -57.39987 55 ft 20 kts 47°
2026-04-19 09:34 49.20672 -57.39825 55 ft 19 kts 47°
2026-04-19 09:34 49.20741 -57.39742 55 ft 10 kts 351°
2026-04-19 09:34 49.20797 -57.39812 55 ft 11 kts 317°
2026-04-19 09:35 49.20854 -57.39878 56 ft 8 kts 358°
2026-04-19 09:35 49.20895 -57.39836 56 ft 4 kts 56°
2026-04-19 09:35 49.20922 -57.39837 56 ft 4 kts 311°
2026-04-19 09:35 49.20929 -57.39848 56 ft 1 kts 310°
2026-04-19 09:36 49.20933 -57.39856 56 ft 1 kts 318°
2026-04-19 09:36 49.20936 -57.39860 56 ft 0 kts 321°